TimeCDT,TemperatureF,Dew PointF,Humidity,Sea Level PressureIn,VisibilityMPH,Wind Direction,Wind SpeedMPH,Gust SpeedMPH,PrecipitationIn,Events,Conditions,WindDirDegrees,DateUTC
12:58 AM,70.5,64.2,80,29.75,10.0,SSE,13.8,-,N/A,,Clear,160,2013-04-10 05:58:00
1:58 AM,71.2,65.1,81,29.75,10.0,South,11.5,-,N/A,,Scattered Clouds,170,2013-04-10 06:58:00
2:58 AM,71.8,64.9,79,29.76,10.0,Variable,6.9,-,N/A,,Scattered Clouds,0,2013-04-10 07:58:00
3:58 AM,71.1,64.8,80,29.76,10.0,South,8.1,-,N/A,,Scattered Clouds,170,2013-04-10 08:58:00
4:58 AM,70.3,64.8,82,29.75,10.0,South,8.1,-,N/A,,Partly Cloudy,180,2013-04-10 09:58:00
5:58 AM,70.7,64.6,81,29.75,10.0,South,10.4,17.3,N/A,,Clear,180,2013-04-10 10:58:00
6:58 AM,70.7,64.4,80,29.75,10.0,SSE,8.1,-,N/A,,Mostly Cloudy,160,2013-04-10 11:58:00
7:58 AM,70.5,64.9,82,29.77,10.0,South,10.4,19.6,N/A,,Mostly Cloudy,170,2013-04-10 12:58:00
8:23 AM,69.8,64.4,83,29.77,10.0,South,8.1,19.6,N/A,,Mostly Cloudy,180,2013-04-10 13:23:00
8:28 AM,69.8,64.4,83,29.78,10.0,South,12.7,20.7,N/A,,Mostly Cloudy,180,2013-04-10 13:28:00
8:44 AM,71.6,64.4,78,29.79,10.0,South,9.2,21.9,N/A,,Light Drizzle,190,2013-04-10 13:44:00
8:53 AM,68.0,62.6,83,29.81,10.0,NW,11.5,21.9,N/A,,Mostly Cloudy,310,2013-04-10 13:53:00
8:58 AM,66.2,62.6,88,29.80,10.0,NW,10.4,21.9,0.00,,Mostly Cloudy,310,2013-04-10 13:58:00
8:59 AM,64.4,60.8,88,29.80,10.0,NW,8.1,21.9,N/A,,Light Drizzle,320,2013-04-10 13:59:00
9:12 AM,64.4,60.8,88,29.81,10.0,NW,5.8,-,N/A,,Mostly Cloudy,310,2013-04-10 14:12:00
9:17 AM,64.4,60.8,88,29.81,10.0,NNW,5.8,-,N/A,Rain,Light Rain,330,2013-04-10 14:17:00
9:31 AM,64.4,60.8,88,29.80,10.0,NNE,2.3,-,N/A,,Overcast,20,2013-04-10 14:31:00
9:36 AM,64.4,62.6,94,29.81,10.0,Calm,Calm,-,N/A,,Light Drizzle,10,2013-04-10 14:36:00
9:46 AM,64.4,62.6,94,29.80,10.0,Calm,Calm,-,N/A,,Light Drizzle,350,2013-04-10 14:46:00
9:47 AM,64.4,62.6,94,29.80,10.0,NNW,1.2,-,N/A,,Overcast,340,2013-04-10 14:47:00
9:58 AM,64.8,61.9,90,29.80,10.0,NW,5.8,-,0.00,,Overcast,310,2013-04-10 14:58:00
10:08 AM,66.2,62.6,88,29.80,10.0,NNW,3.5,-,N/A,,Mostly Cloudy,330,2013-04-10 15:08:00
10:58 AM,72.3,64.6,77,29.78,10.0,SW,3.5,-,N/A,,Clear,230,2013-04-10 15:58:00
11:58 AM,77.2,65.3,67,29.76,10.0,Variable,6.9,-,N/A,,Partly Cloudy,0,2013-04-10 16:58:00
12:47 PM,73.4,64.4,73,29.77,10.0,NW,10.4,-,N/A,Rain,Light Rain,310,2013-04-10 17:47:00
12:58 PM,71.6,64.9,79,29.76,10.0,NW,10.4,-,0.00,Rain,Light Rain,310,2013-04-10 17:58:00
1:03 PM,71.6,64.4,78,29.77,10.0,NW,9.2,-,N/A,,Scattered Clouds,320,2013-04-10 18:03:00
2:58 PM,74.7,64.2,70,29.67,10.0,North,6.9,-,N/A,,Scattered Clouds,350,2013-04-10 19:58:00
3:15 PM,75.2,64.4,69,29.68,10.0,Variable,3.5,-,N/A,Rain-Thunderstorm,Light Rain,0,2013-04-10 20:15:00
3:40 PM,71.6,64.4,78,29.68,10.0,NW,9.2,-,N/A,,Scattered Clouds,320,2013-04-10 20:40:00
3:48 PM,71.6,64.4,78,29.67,10.0,NW,9.2,-,N/A,Rain-Thunderstorm,Light Thunderstorms and Rain,310,2013-04-10 20:48:00
3:58 PM,69.8,64.4,83,29.65,2.5,WSW,8.1,-,0.06,Rain-Thunderstorm,Heavy Thunderstorms and Rain,240,2013-04-10 20:58:00
4:03 PM,68.0,66.2,94,29.66,3.0,NW,6.9,-,N/A,Rain-Thunderstorm,Light Thunderstorms and Rain,310,2013-04-10 21:03:00
4:05 PM,68.0,66.2,94,29.66,6.0,WNW,10.4,-,N/A,Rain-Thunderstorm,Light Rain,300,2013-04-10 21:05:00
4:11 PM,68.0,66.2,94,29.66,10.0,WSW,5.8,-,N/A,,Mostly Cloudy,250,2013-04-10 21:11:00
4:39 PM,68.0,66.2,94,29.60,10.0,NNW,11.5,-,N/A,Rain,Light Rain,330,2013-04-10 21:39:00
4:56 PM,66.2,64.4,94,29.63,10.0,West,9.2,-,N/A,Rain-Thunderstorm,Light Thunderstorms and Rain,280,2013-04-10 21:56:00
4:58 PM,66.2,64.4,94,29.62,10.0,West,8.1,-,0.04,Rain-Thunderstorm,Light Thunderstorms and Rain,280,2013-04-10 21:58:00
5:03 PM,66.2,64.4,94,29.67,2.0,Variable,4.6,-,N/A,Rain-Thunderstorm,Light Thunderstorms and Rain,0,2013-04-10 22:03:00
5:08 PM,64.4,64.4,100,29.65,0.5,Variable,6.9,-,N/A,Fog-Rain-Thunderstorm,Heavy Thunderstorms and Rain,0,2013-04-10 22:08:00
5:13 PM,64.4,64.4,100,29.63,0.5,WNW,6.9,-,N/A,Fog-Rain-Thunderstorm,Heavy Thunderstorms and Rain,300,2013-04-10 22:13:00
5:18 PM,62.6,62.6,100,29.64,1.2,WSW,8.1,-,N/A,Rain-Thunderstorm,Thunderstorms and Rain,250,2013-04-10 22:18:00
5:23 PM,62.6,62.6,100,29.65,4.0,WSW,8.1,-,N/A,Rain-Thunderstorm,Thunderstorms and Rain,250,2013-04-10 22:23:00
5:26 PM,62.6,62.6,100,29.63,5.0,Variable,5.8,-,N/A,Rain-Thunderstorm,Light Rain,0,2013-04-10 22:26:00
5:56 PM,60.8,60.8,100,29.65,2.0,WNW,12.7,-,N/A,Rain,Heavy Rain,290,2013-04-10 22:56:00
5:58 PM,60.8,60.8,100,29.64,2.0,WNW,12.7,-,0.44,Rain,Heavy Rain,290,2013-04-10 22:58:00
6:03 PM,60.8,60.8,100,29.69,3.0,West,24.2,34.5,N/A,Rain,Rain,260,2013-04-10 23:03:00
6:04 PM,59.0,59.0,100,29.71,4.0,WSW,20.7,39.1,N/A,Rain-Thunderstorm,Thunderstorms and Rain,250,2013-04-10 23:04:00
6:05 PM,59.0,59.0,100,29.74,5.0,WSW,19.6,39.1,N/A,Rain-Thunderstorm,Thunderstorms and Rain,240,2013-04-10 23:05:00
6:10 PM,57.2,57.2,100,29.73,0.8,West,17.3,39.1,N/A,Rain-Thunderstorm,Light Thunderstorms and Rain,270,2013-04-10 23:10:00
6:11 PM,55.4,55.4,100,29.74,0.8,West,20.7,39.1,N/A,Rain-Thunderstorm,Light Thunderstorms and Rain,280,2013-04-10 23:11:00
6:18 PM,53.6,53.6,100,29.76,1.8,West,15.0,32.2,N/A,Rain-Thunderstorm,Rain,280,2013-04-10 23:18:00
6:23 PM,51.8,51.8,100,29.73,5.0,WNW,11.5,24.2,N/A,Rain-Thunderstorm,Rain,290,2013-04-10 23:23:00
6:32 PM,51.8,51.8,100,29.75,2.5,WSW,10.4,19.6,N/A,Rain-Thunderstorm,Thunderstorms and Rain,240,2013-04-10 23:32:00
6:37 PM,51.8,51.8,100,29.73,1.8,Variable,6.9,16.1,N/A,Rain-Thunderstorm,Heavy Thunderstorms and Rain,0,2013-04-10 23:37:00
6:42 PM,51.8,51.8,100,29.72,3.0,Variable,4.6,16.1,N/A,Rain-Thunderstorm,Thunderstorms and Rain,0,2013-04-10 23:42:00
6:58 PM,52.2,52.2,100,29.73,6.0,SSW,4.6,-,0.36,Rain,Rain,210,2013-04-10 23:58:00
7:33 PM,51.8,51.8,100,29.72,8.0,West,8.1,-,N/A,Rain,Rain,260,2013-04-11 00:33:00
7:38 PM,51.8,51.8,100,29.72,7.0,West,5.8,-,N/A,Rain,Rain,260,2013-04-11 00:38:00
7:58 PM,50.4,50.4,100,29.72,7.0,West,5.8,-,0.11,Rain,Rain,270,2013-04-11 00:58:00
8:48 PM,48.2,48.2,100,29.71,10.0,West,3.5,-,N/A,Rain,Light Rain,260,2013-04-11 01:48:00
8:53 PM,48.2,48.2,100,29.70,10.0,West,3.5,-,N/A,Rain,Light Rain,280,2013-04-11 01:53:00
8:58 PM,48.6,48.6,100,29.68,8.0,NW,2.3,-,0.14,Rain,Light Rain,320,2013-04-11 01:58:00
9:03 PM,48.2,48.2,100,29.68,7.0,NW,4.6,-,N/A,Rain,Light Rain,320,2013-04-11 02:03:00
9:13 PM,48.2,48.2,100,29.68,10.0,West,3.5,-,N/A,Rain,Light Rain,260,2013-04-11 02:13:00
9:18 PM,48.2,48.2,100,29.68,10.0,West,4.6,-,N/A,Rain,Light Rain,280,2013-04-11 02:18:00
9:28 PM,48.2,48.2,100,29.70,10.0,West,6.9,-,N/A,,Overcast,260,2013-04-11 02:28:00
9:58 PM,46.4,46.4,100,29.73,10.0,West,6.9,17.3,0.04,,Overcast,270,2013-04-11 02:58:00
10:21 PM,46.4,46.4,100,29.74,5.0,West,9.2,16.1,N/A,,Light Drizzle,270,2013-04-11 03:21:00
10:31 PM,44.6,44.6,100,29.75,6.0,West,8.1,17.3,N/A,,Overcast,270,2013-04-11 03:31:00
10:58 PM,44.2,44.2,100,29.75,9.0,West,8.1,21.9,0.00,,Overcast,280,2013-04-11 03:58:00
11:38 PM,42.8,42.8,100,29.76,10.0,West,10.4,18.4,N/A,,Overcast,270,2013-04-11 04:38:00
11:48 PM,42.8,42.8,100,29.77,9.0,Variable,6.9,19.6,N/A,,Overcast,0,2013-04-11 04:48:00
11:58 PM,42.3,42.3,100,29.77,10.0,West,6.9,-,N/A,,Overcast,270,2013-04-11 04:58:00